FW8022 Weather Reports


Display with metric or nautical units.
time (UTC)temp
F
wind
direction
speed
MPH
gust
MPH
rain 1hr
in
rain 24hr
in
rain mn
in
humidity
%
barometer
mb
20260506212537 59 317 4.0 8.0 0.00 0.00 0.00 82 1019.1
20260506212037 59 360 2.0 8.0 0.00 0.00 0.00 83 1019.0
20260506211546 59 281 3.0 10.0 0.00 0.00 0.00 82 1019.0
20260506211036 59 284 2.0 10.0 0.00 0.00 0.00 84 1019.0
20260506210537 58 292 4.0 10.0 0.00 0.00 0.00 83 1018.9
20260506210044 58 292 3.0 9.0 0.00 0.00 0.00 84 1019.0
20260506205536 59 292 3.0 8.0 0.00 0.00 0.00 82 1019.1
20260506205036 60 293 2.0 8.0 0.00 0.00 0.00 84 1019.0
20260506204544 58 334 3.0 8.0 0.00 0.00 0.00 84 1019.2
20260506204038 59 308 2.0 7.0 0.00 0.00 0.00 82 1019.2
20260506203537 59 327 2.0 7.0 0.00 0.00 0.00 84 1019.3
20260506203047 59 307 3.0 7.0 0.00 0.00 0.00 83 1019.3
20260506202536 59 317 3.0 7.0 0.00 0.00 0.00 82 1019.3
20260506202037 60 281 2.0 8.0 0.00 0.00 0.00 82 1019.3
20260506201544 59 299 3.0 8.0 0.00 0.00 0.00 84 1019.4
20260506201037 59 284 2.0 6.0 0.00 0.00 0.00 83 1019.4
20260506200538 59 237 1.0 6.0 0.00 0.00 0.00 83 1019.5
20260506200048 59 281 2.0 6.0 0.00 0.00 0.00 82 1019.5
20260506195537 59 287 2.0 7.0 0.00 0.00 0.00 83 1019.5
20260506195037 60 313 2.0 7.0 0.00 0.00 0.00 83 1019.6
20260506194558 59 9 3.0 6.0 0.00 0.00 0.00 83 1019.6
20260506194044 60 319 2.0 6.0 0.00 0.00 0.00 81 1019.6
20260506193537 60 290 2.0 7.0 0.00 0.00 0.00 82 1019.7
20260506193043 59 319 2.0 7.0 0.00 0.00 0.00 82 1019.6
20260506192536 60 341 2.0 5.0 0.00 0.00 0.00 84 1019.6
20260506192036 59 319 2.0 6.0 0.00 0.00 0.00 82 1019.8
20260506191552 59 5 2.0 7.0 0.00 0.00 0.00 84 1019.8
20260506191036 59 290 2.0 7.0 0.00 0.00 0.00 83 1019.8
20260506190538 59 288 2.0 6.0 0.00 0.00 0.00 82 1019.9
20260506190044 59 243 2.0 6.0 0.00 0.00 0.00 80 1019.8
20260506185538 60 328 2.0 7.0 0.00 0.00 0.00 82 1019.8
20260506185038 59 237 2.0 7.0 0.00 0.00 0.00 83 1019.8
20260506184551 59 295 2.0 6.0 0.00 0.00 0.00 82 1019.7
20260506184038 59 267 2.0 6.0 0.00 0.00 0.00 83 1019.8
20260506183537 59 269 2.0 4.0 0.00 0.00 0.00 85 1019.9
20260506183047 58 284 2.0 4.0 0.00 0.00 0.00 84 1019.9
20260506182536 58 308 1.0 5.0 0.00 0.00 0.00 84 1020.0
20260506182036 58 246 2.0 5.0 0.00 0.00 0.00 83 1019.9
20260506181547 58 314 2.0 4.0 0.00 0.00 0.00 83 1019.9
20260506181037 58 292 2.0 5.0 0.00 0.00 0.00 83 1019.9
20260506180537 58 322 2.0 6.0 0.00 0.00 0.00 82 1019.8
20260506180054 59 283 2.0 6.0 0.00 0.00 0.00 81 1019.8
20260506175536 59 284 2.0 4.0 0.00 0.00 0.00 84 1019.7
20260506175033 58 246 1.0 4.0 0.00 0.00 0.00 83 1019.8
20260506174542 58 293 2.0 5.0 0.00 0.00 0.00 83 1019.7
20260506174033 58 252 2.0 5.0 0.00 0.00 0.00 82 1019.7
20260506173535 58 288 2.0 5.0 0.00 0.00 0.00 83 1019.7
20260506173048 58 281 2.0 6.0 0.00 0.00 0.00 83 1019.7
20260506172533 58 298 2.0 6.0 0.00 0.00 0.00 84 1019.7
20260506172033 58 278 2.0 6.0 0.00 0.00 0.00 83 1019.7
20260506171556 58 241 1.0 4.0 0.00 0.00 0.00 84 1019.7
20260506171040 58 298 2.0 4.0 0.00 0.00 0.00 84 1019.7
20260506170540 58 355 1.0 3.0 0.00 0.00 0.00 84 1019.8
20260506170049 58 293 1.0 4.0 0.00 0.00 0.00 85 1019.7
20260506165539 57 298 1.0 4.0 0.00 0.00 0.00 85 1019.7
20260506165037 57 340 1.0 6.0 0.00 0.00 0.00 85 1019.7
20260506164558 57 289 2.0 6.0 0.00 0.00 0.00 85 1019.7
20260506164036 57 263 1.0 4.0 0.00 0.00 0.00 85 1019.6
20260506163536 57 317 2.0 4.0 0.00 0.00 0.00 84 1019.7
20260506163054 57 346 1.0 6.0 0.00 0.00 0.00 84 1019.7
20260506162533 57 13 1.0 6.0 0.00 0.00 0.00 85 1019.7
20260506162033 57 293 1.0 4.0 0.00 0.00 0.00 85 1019.7
20260506161604 57 0 1.0 3.0 0.00 0.00 0.00 85 1019.7
20260506161033 57 0 2.0 4.0 0.00 0.00 0.00 85 1019.6
20260506160533 57 318 1.0 4.0 0.00 0.00 0.00 86 1019.7
20260506160052 57 338 1.0 3.0 0.00 0.00 0.00 86 1019.6
20260506155533 56 279 1.0 3.0 0.00 0.02 0.00 86 1019.7
20260506155036 57 346 0.0 3.0 0.00 0.02 0.00 85 1019.6
20260506154610 56 0 1.0 3.0 0.00 0.02 0.00 86 1019.6
20260506154033 56 295 0.0 3.0 0.00 0.02 0.00 86 1019.5
20260506153536 56 291 1.0 3.0 0.00 0.02 0.00 86 1019.5
20260506153045 56 36 1.0 3.0 0.00 0.02 0.00 86 1019.5
20260506152537 55 310 0.0 3.0 0.00 0.02 0.00 87 1019.5
20260506152039 55 276 1.0 3.0 0.00 0.02 0.00 87 1019.5
20260506151545 56 295 1.0 2.0 0.00 0.02 0.00 88 1019.5
20260506151038 55 331 0.0 2.0 0.00 0.02 0.00 88 1019.5
20260506150541 55 0 0.0 3.0 0.00 0.02 0.00 88 1019.5
20260506150053 55 0 0.0 3.0 0.00 0.02 0.00 88 1019.4
20260506145543 55 288 1.0 4.0 0.00 0.02 0.00 87 1019.4
20260506145039 55 0 0.0 4.0 0.00 0.02 0.00 87 1019.4
20260506144555 55 0 0.0 4.0 0.00 0.02 0.00 88 1019.4
20260506144038 55 0 0.0 2.0 0.00 0.02 0.00 88 1019.3
20260506143538 55 313 0.0 3.0 0.00 0.02 0.00 87 1019.3
20260506143041 55 306 0.0 3.0 0.00 0.02 0.00 88 1019.3
20260506142540 55 0 1.0 3.0 0.00 0.02 0.00 87 1019.3
20260506142038 55 59 0.0 3.0 0.00 0.02 0.00 88 1019.2
20260506141549 55 317 0.0 2.0 0.00 0.02 0.00 88 1019.2
20260506141038 55 5 0.0 3.0 0.00 0.02 0.00 88 1019.1
20260506140541 55 0 1.0 3.0 0.00 0.02 0.00 87 1019.0
20260506140057 55 5 0.0 3.0 0.00 0.02 0.00 87 1019.0
20260506135537 55 0 0.0 3.0 0.00 0.02 0.00 87 1018.9
20260506135037 55 0 1.0 3.0 0.00 0.02 0.00 87 1018.9
20260506134552 55 311 0.0 2.0 0.00 0.02 0.00 87 1018.8
20260506134038 55 336 0.0 2.0 0.00 0.02 0.00 86 1018.8
20260506133537 55 328 0.0 3.0 0.00 0.02 0.00 86 1018.8
20260506133054 56 29 0.0 3.0 0.00 0.02 0.00 86 1018.8
20260506132538 55 0 0.0 4.0 0.00 0.02 0.00 85 1018.7
20260506132042 55 290 0.0 4.0 0.00 0.02 0.00 84 1018.5
20260506131543 55 290 2.0 4.0 0.00 0.02 0.00 84 1018.6
20260506131039 55 318 0.0 2.0 0.00 0.02 0.00 84 1018.5
20260506130540 55 0 0.0 3.0 0.00 0.02 0.00 84 1018.4
20260506130050 55 273 1.0 3.0 0.00 0.02 0.00 84 1018.5
20260506125538 55 287 1.0 4.0 0.00 0.02 0.00 85 1018.5
20260506125039 55 336 1.0 5.0 0.00 0.02 0.00 84 1018.5
20260506124542 55 299 1.0 5.0 0.00 0.02 0.00 84 1018.4
20260506124039 55 345 1.0 5.0 0.00 0.02 0.00 84 1018.4
20260506123541 55 312 0.0 4.0 0.00 0.02 0.00 85 1018.4
20260506123047 55 19 0.0 3.0 0.00 0.02 0.00 85 1018.3
20260506122535 55 303 1.0 4.0 0.00 0.02 0.00 85 1018.2
20260506122036 55 42 1.0 4.0 0.00 0.02 0.00 85 1018.2
20260506121545 55 346 1.0 3.0 0.00 0.02 0.00 85 1018.2
20260506121037 55 312 0.0 3.0 0.00 0.02 0.00 85 1018.2
20260506120542 55 298 1.0 3.0 0.00 0.02 0.00 85 1018.1
20260506120047 55 269 1.0 3.0 0.00 0.02 0.00 85 1018.1
20260506115537 55 0 0.0 3.0 0.00 0.02 0.00 85 1018.1
20260506115036 55 0 0.0 4.0 0.00 0.02 0.00 85 1018.1
20260506114558 55 301 1.0 4.0 0.00 0.02 0.00 86 1018.0
20260506114037 55 288 2.0 4.0 0.00 0.02 0.00 85 1018.0
20260506113536 55 0 0.0 4.0 0.00 0.02 0.00 86 1018.0
20260506113053 55 279 0.0 3.0 0.00 0.02 0.00 85 1018.0
20260506112536 55 312 1.0 4.0 0.00 0.02 0.00 85 1017.9
20260506112036 55 231 1.0 4.0 0.00 0.02 0.00 85 1017.9
20260506111552 55 345 1.0 4.0 0.00 0.02 0.00 85 1017.9
20260506111040 55 288 2.0 4.0 0.00 0.02 0.00 85 1017.7
20260506110536 55 292 1.0 4.0 0.00 0.02 0.00 85 1017.8
20260506110047 55 295 1.0 4.0 0.00 0.02 0.00 85 1017.8
20260506105536 55 284 1.0 8.0 0.00 0.02 0.00 85 1017.7
20260506105036 55 313 1.0 8.0 0.00 0.02 0.00 85 1017.7
20260506104553 55 282 1.0 4.0 0.00 0.02 0.00 86 1017.7
20260506104036 55 331 1.0 5.0 0.00 0.02 0.00 86 1017.7
20260506103533 55 275 1.0 5.0 0.00 0.02 0.00 86 1017.7
20260506103058 55 249 1.0 4.0 0.00 0.02 0.00 86 1017.7
20260506102534 55 272 1.0 3.0 0.00 0.02 0.00 86 1017.7
20260506102034 55 284 1.0 3.0 0.00 0.02 0.00 86 1017.6
20260506101550 55 263 1.0 3.0 0.00 0.02 0.00 86 1017.6
20260506101036 55 286 1.0 4.0 0.00 0.02 0.00 86 1017.6
20260506100533 55 293 1.0 5.0 0.00 0.02 0.00 86 1017.6
20260506100043 55 281 1.0 5.0 0.00 0.02 0.00 86 1017.6
20260506095540 55 329 1.0 6.0 0.00 0.03 0.00 86 1017.6
20260506095033 55 279 2.0 6.0 0.00 0.03 0.00 86 1017.6
20260506094541 55 269 1.0 4.0 0.00 0.03 0.00 86 1017.6
20260506094033 55 289 1.0 4.0 0.00 0.03 0.00 87 1017.7
20260506093536 55 0 1.0 4.0 0.00 0.03 0.00 87 1017.6
20260506093046 55 0 0.0 4.0 0.00 0.03 0.00 87 1017.6
20260506092533 55 281 1.0 3.0 0.00 0.03 0.00 88 1017.5
20260506092033 55 304 0.0 3.0 0.00 0.03 0.00 88 1017.5
20260506091544 55 273 1.0 4.0 0.00 0.03 0.00 88 1017.5
20260506091109 55 278 1.0 4.0 0.00 0.03 0.00 88 1017.4
20260506090538 55 295 1.0 3.0 0.00 0.03 0.00 88 1017.5
20260506090043 55 267 1.0 3.0 0.00 0.03 0.00 88 1017.5
20260506085537 55 310 0.0 4.0 0.00 0.11 0.00 88 1017.5
20260506085037 55 291 1.0 4.0 0.00 0.11 0.00 88 1017.5
20260506084545 55 290 2.0 4.0 0.00 0.11 0.00 88 1017.4
20260506084037 55 277 1.0 4.0 0.00 0.11 0.00 88 1017.5
20260506083539 55 0 1.0 4.0 0.00 0.11 0.00 88 1017.5
20260506083052 56 286 2.0 4.0 0.00 0.11 0.00 88 1017.5
20260506082540 56 289 1.0 4.0 0.00 0.11 0.00 88 1017.6
20260506082038 56 280 1.0 4.0 0.00 0.11 0.00 88 1017.5
20260506081552 56 265 0.0 4.0 0.00 0.11 0.00 88 1017.6
20260506081040 56 279 1.0 4.0 0.00 0.11 0.00 88 1017.6
20260506080538 56 285 1.0 4.0 0.00 0.11 0.00 88 1017.6
20260506073053 56 327 0.0 4.0 0.00 0.13 0.00 88 1017.3
20260506072538 56 280 1.0 4.0 0.00 0.13 0.00 87 1017.4
20260506072037 56 283 2.0 4.0 0.00 0.13 0.00 87 1017.3
20260506071544 56 289 1.0 4.0 0.00 0.13 0.00 87 1017.3
20260506071038 56 295 1.0 5.0 0.00 0.13 0.00 87 1017.3
20260506070538 56 0 1.0 6.0 0.00 0.13 0.00 87 1017.3
20260506062038 56 278 1.0 3.0 0.00 0.14 0.13 87 1017.0
20260506061556 56 261 0.0 4.0 0.00 0.14 0.13 87 1017.1
20260506061041 56 261 1.0 4.0 0.00 0.14 0.13 88 1017.0
20260506060538 56 0 1.0 4.0 0.00 0.14 0.13 88 1017.0
20260506051042 56 279 1.0 4.0 0.00 0.16 0.13 90 1016.8
20260506050538 56 244 1.0 4.0 0.00 0.16 0.13 90 1016.7
20260506045040 56 237 0.0 4.0 0.00 0.16 0.13 90 1016.7
20260506044552 56 237 1.0 4.0 0.00 0.16 0.13 90 1016.6
20260506044037 56 225 1.0 4.0 0.00 0.16 0.13 90 1016.6
20260506043538 56 225 1.0 4.0 0.00 0.16 0.13 90 1016.6
20260506043043 56 240 1.0 3.0 0.00 0.16 0.13 90 1016.5
20260506042537 56 245 1.0 4.0 0.00 0.16 0.13 90 1016.4
20260506042039 56 242 1.0 4.0 0.00 0.16 0.13 90 1016.4
20260506041545 56 242 1.0 4.0 0.00 0.16 0.13 90 1016.2
20260506041037 56 242 1.0 4.0 0.00 0.16 0.13 90 1016.2
20260506040537 56 223 2.0 4.0 0.00 0.16 0.13 90 1016.1
20260506040051 56 240 1.0 4.0 0.00 0.16 0.13 90 1016.0
20260506035538 56 240 2.0 4.0 0.00 0.16 0.13 90 1015.9
20260506035036 56 0 1.0 3.0 0.00 0.16 0.13 90 1015.9
20260506034547 56 216 1.0 4.0 0.00 0.16 0.13 90 1015.8
20260506034036 56 228 1.0 4.0 0.00 0.16 0.13 90 1015.7
20260506033537 56 238 1.0 3.0 0.00 0.16 0.13 90 1015.6
20260506033045 56 238 1.0 4.0 0.00 0.16 0.13 90 1015.6
20260506032538 56 238 1.0 4.0 0.00 0.16 0.13 90 1015.5
20260506032040 56 224 1.0 4.0 0.00 0.16 0.13 89 1015.4
20260506031544 56 244 2.0 4.0 0.00 0.16 0.13 89 1015.5
20260506031038 56 243 2.0 4.0 0.00 0.16 0.13 89 1015.3
20260506030539 56 225 2.0 4.0 0.00 0.16 0.13 89 1015.4
20260506030044 56 232 2.0 4.0 0.00 0.16 0.13 89 1015.3
20260506025538 56 224 2.0 4.0 0.00 0.16 0.13 89 1015.3
20260506025037 56 231 2.0 4.0 0.00 0.16 0.13 89 1015.3
20260506024545 56 232 2.0 4.0 0.00 0.16 0.13 88 1015.2
20260506024037 56 244 2.0 5.0 0.00 0.16 0.13 88 1015.2
20260506023538 56 214 2.0 5.0 0.00 0.16 0.13 88 1015.2
20260506023053 56 219 2.0 5.0 0.00 0.16 0.13 88 1015.1
20260506022537 56 218 3.0 7.0 0.00 0.16 0.13 88 1015.1
20260506022038 56 240 3.0 7.0 0.00 0.16 0.13 88 1015.0
20260506021555 56 252 3.0 7.0 0.00 0.16 0.13 88 1015.0
20260506021041 56 235 3.0 7.0 0.00 0.16 0.13 88 1015.1
20260506020539 56 236 3.0 7.0 0.00 0.16 0.13 88 1015.0
20260506020047 56 232 2.0 5.0 0.00 0.16 0.13 87 1015.1
20260506015538 56 239 2.0 7.0 0.00 0.16 0.13 87 1015.1
20260506015039 56 254 3.0 7.0 0.00 0.16 0.13 87 1015.1
20260506014552 56 246 3.0 7.0 0.00 0.16 0.13 87 1015.0
20260506014037 57 228 3.0 7.0 0.00 0.16 0.13 87 1015.0
20260506013537 57 225 3.0 6.0 0.00 0.16 0.13 87 1015.2
20260506013043 57 245 2.0 5.0 0.00 0.16 0.13 86 1015.1
20260506012537 57 234 2.0 6.0 0.00 0.16 0.13 87 1015.1
20260506012039 57 236 3.0 7.0 0.00 0.16 0.13 86 1015.1
20260506011552 57 250 3.0 7.0 0.00 0.16 0.13 86 1015.0
20260506011037 58 229 2.0 6.0 0.00 0.16 0.13 86 1015.0
20260506010537 58 216 2.0 6.0 0.00 0.16 0.13 85 1015.0
20260506005537 58 229 3.0 6.0 0.00 0.16 0.13 85 1015.0
20260506005037 58 250 2.0 6.0 0.00 0.16 0.13 85 1015.0
20260506004550 59 240 2.0 7.0 0.00 0.16 0.13 84 1014.9
20260506004038 58 232 2.0 7.0 0.00 0.16 0.13 85 1014.9
20260506003537 58 244 3.0 7.0 0.00 0.16 0.13 84 1014.8
20260506003044 59 221 2.0 7.0 0.00 0.16 0.13 83 1014.7
20260506002538 59 255 2.0 7.0 0.00 0.16 0.13 84 1014.7
20260506002038 58 240 3.0 7.0 0.00 0.16 0.13 84 1014.7
20260506001553 58 253 4.0 8.0 0.00 0.16 0.13 84 1014.7
20260506001038 58 225 3.0 8.0 0.00 0.16 0.13 85 1014.7
20260506000539 58 236 2.0 7.0 0.00 0.16 0.13 84 1014.7
20260506000052 59 242 3.0 7.0 0.00 0.16 0.13 84 1014.7
20260505235537 59 244 4.0 7.0 0.00 0.16 0.13 84 1014.7
20260505235037 59 223 4.0 7.0 0.00 0.16 0.13 84 1014.8
20260505234605 58 232 3.0 7.0 0.00 0.16 0.13 83 1014.7
20260505234040 58 246 3.0 6.0 0.00 0.16 0.13 84 1014.7
20260505233541 58 246 3.0 6.0 0.00 0.16 0.13 83 1014.7
20260505233049 58 219 3.0 6.0 0.00 0.16 0.13 83 1014.9
20260505232537 58 231 2.0 6.0 0.00 0.16 0.13 83 1014.9
20260505232040 58 276 2.0 6.0 0.00 0.16 0.13 83 1014.9
20260505231549 59 245 3.0 7.0 0.00 0.16 0.13 82 1014.9
20260505231036 59 271 3.0 7.0 0.00 0.16 0.13 82 1014.9
20260505230537 59 252 2.0 7.0 0.00 0.16 0.13 83 1014.9
20260505230044 59 281 3.0 7.0 0.00 0.16 0.13 83 1014.9
20260505225538 59 236 3.0 7.0 0.00 0.16 0.13 83 1014.8
20260505225039 59 249 3.0 7.0 0.00 0.16 0.13 82 1014.7
20260505224546 59 223 3.0 8.0 0.00 0.16 0.13 81 1014.7
20260505224040 60 244 3.0 8.0 0.00 0.16 0.13 81 1014.8
20260505223537 60 240 4.0 6.0 0.00 0.16 0.13 80 1014.8
20260505223043 60 257 3.0 9.0 0.00 0.16 0.13 80 1014.9
20260505222540 60 225 2.0 9.0 0.00 0.16 0.13 81 1014.8
20260505222036 60 229 3.0 9.0 0.00 0.16 0.13 80 1014.8
20260505221544 59 204 3.0 7.0 0.00 0.16 0.13 81 1014.8
20260505221037 59 210 3.0 7.0 0.00 0.16 0.13 82 1014.9
20260505220539 59 216 3.0 7.0 0.00 0.16 0.13 82 1014.8
20260505220042 59 244 2.0 7.0 0.00 0.16 0.13 80 1014.9
20260505215538 59 238 3.0 8.0 0.00 0.16 0.13 79 1015.0
20260505215039 60 250 3.0 8.0 0.00 0.16 0.13 78 1015.0
20260505214604 60 288 2.0 7.0 0.00 0.16 0.13 79 1015.0
20260505214037 60 238 2.0 7.0 0.00 0.16 0.13 80 1015.0
20260505213539 59 246 2.0 7.0 0.00 0.16 0.13 82 1015.1
20260505213057 58 242 3.0 8.0 0.00 0.16 0.13 81 1015.2